• In Netherlands
  • List of Countries
  • For 7 days
  • Water Temperature
  • Satellite Maps
  • Weather Map
  • Weather Widgets
  • user-avatar
    Login

    Hourly Weather Vidin

    Today, 26 March, Sunday

    Time Temperature Precipitation Wind Pressure Humidity
    00:00 +10°C° 0 mm 2 mps 760 mmHg 81%
    01:00 +10°C° 0 mm 3 mps 759 mmHg 81%
    02:00 +9°C° 0 mm 3 mps 759 mmHg 82%
    03:00 +9°C° 0 mm 3 mps 758 mmHg 81%
    04:00 +9°C° 0 mm 3 mps 758 mmHg 80%
    05:00 +9°C° 0 mm 3 mps 757 mmHg 80%
    06:00 +10°C° 0 mm 3 mps 757 mmHg 76%
    07:00 +10°C° 0 mm 3 mps 757 mmHg 73%
    08:00 +12°C° 0 mm 4 mps 757 mmHg 68%
    09:00 +13°C° 0 mm 5 mps 757 mmHg 62%
    10:00 +14°C° 0 mm 5 mps 757 mmHg 56%
    11:00 +15°C° 0 mm 6 mps 757 mmHg 50%
    12:00 +15°C° 0 mm 6 mps 757 mmHg 48%
    13:00 +15°C° 0 mm 7 mps 757 mmHg 47%
    14:00 +15°C° 0 mm 7 mps 757 mmHg 45%
    15:00 +14°C° 0 mm 6 mps 757 mmHg 47%
    16:00 +13°C° 0 mm 6 mps 758 mmHg 48%
    17:00 +12°C° 0 mm 5 mps 758 mmHg 49%
    18:00 +10°C° 0 mm 5 mps 759 mmHg 54%
    19:00 +10°C° 0 mm 4 mps 760 mmHg 59%
    20:00 +9°C° 0 mm 3 mps 761 mmHg 63%
    21:00 +9°C° 0.2 mm 3 mps 761 mmHg 67%
    22:00 +8°C° 0.2 mm 3 mps 762 mmHg 71%
    23:00 +8°C° 0.2 mm 3 mps 763 mmHg 75%

    Tomorrow, 27 March, Monday

    Time Temperature Precipitation Wind Pressure Humidity
    00:00 +8°C° 0.1 mm 3 mps 763 mmHg 77%
    01:00 +7°C° 0.1 mm 2 mps 763 mmHg 78%
    02:00 +7°C° 0.1 mm 2 mps 764 mmHg 80%
    03:00 +6°C° 0 mm 2 mps 764 mmHg 83%
    04:00 +5°C° 0 mm 2 mps 764 mmHg 86%
    05:00 +6°C° 0 mm 1 mps 764 mmHg 89%
    06:00 +5°C° 0 mm 2 mps 765 mmHg 84%
    07:00 +6°C° 0 mm 2 mps 765 mmHg 79%
    08:00 +7°C° 0 mm 2 mps 765 mmHg 75%
    09:00 +8°C° 0 mm 2 mps 765 mmHg 66%
    10:00 +9°C° 0 mm 2 mps 765 mmHg 58%
    11:00 +11°C° 0 mm 3 mps 766 mmHg 50%
    12:00 +13°C° 0 mm 2 mps 765 mmHg 47%
    13:00 +13°C° 0 mm 2 mps 765 mmHg 43%
    14:00 +14°C° 0 mm 2 mps 764 mmHg 39%
    15:00 +14°C° 0 mm 2 mps 764 mmHg 39%
    16:00 +14°C° 0 mm 1 mps 764 mmHg 39%
    17:00 +14°C° 0 mm 1 mps 764 mmHg 39%
    18:00 +12°C° 0 mm 1 mps 764 mmHg 44%
    19:00 +11°C° 0 mm 1 mps 764 mmHg 49%
    20:00 +8°C° 0 mm 2 mps 765 mmHg 55%
    21:00 +8°C° 0 mm 1 mps 765 mmHg 57%
    22:00 +8°C° 0 mm 1 mps 765 mmHg 59%
    23:00 +7°C° 0 mm 1 mps 765 mmHg 60%

    Day after tomorrow, 28 March, Tuesday

    Time Temperature Precipitation Wind Pressure Humidity
    00:00 +7°C° 0 mm 1 mps 766 mmHg 62%
    01:00 +6°C° 0 mm 1 mps 766 mmHg 63%
    02:00 +6°C° 0 mm 1 mps 766 mmHg 65%
    03:00 +6°C° 0 mm 1 mps 765 mmHg 66%
    04:00 +4°C° 0 mm 0 mps 765 mmHg 67%
    05:00 +4°C° 0 mm 0 mps 765 mmHg 68%
    06:00 +6°C° 0 mm 0 mps 765 mmHg 63%
    07:00 +8°C° 0 mm 1 mps 765 mmHg 58%
    08:00 +10°C° 0 mm 1 mps 765 mmHg 53%
    09:00 +12°C° 0 mm 1 mps 765 mmHg 47%
    10:00 +14°C° 0 mm 1 mps 765 mmHg 42%
    11:00 +16°C° 0 mm 1 mps 765 mmHg 37%
    12:00 +18°C° 0 mm 1 mps 764 mmHg 35%
    13:00 +18°C° 0 mm 2 mps 764 mmHg 34%
    14:00 +19°C° 0 mm 2 mps 763 mmHg 32%
    15:00 +19°C° 0 mm 2 mps 763 mmHg 34%
    16:00 +19°C° 0 mm 2 mps 763 mmHg 35%
    17:00 +18°C° 0 mm 2 mps 762 mmHg 36%
    18:00 +16°C° 0 mm 2 mps 763 mmHg 44%
    19:00 +14°C° 0 mm 2 mps 763 mmHg 51%
    20:00 +12°C° 0 mm 2 mps 764 mmHg 59%
    21:00 +10°C° 0 mm 2 mps 764 mmHg 62%
    22:00 +9°C° 0 mm 2 mps 764 mmHg 65%
    23:00 +9°C° 0 mm 2 mps 764 mmHg 68%

    29 March, Wednesday

    Time Temperature Precipitation Wind Pressure Humidity
    00:00 +8°C° 0 mm 2 mps 764 mmHg 71%
    01:00 +8°C° 0 mm 2 mps 764 mmHg 73%
    02:00 +9°C° 0 mm 1 mps 764 mmHg 76%
    03:00 +8°C° 0 mm 1 mps 764 mmHg 77%
    04:00 +8°C° 0 mm 1 mps 764 mmHg 79%
    05:00 +8°C° 0 mm 1 mps 764 mmHg 81%
    06:00 +9°C° 0 mm 1 mps 764 mmHg 75%
    07:00 +10°C° 0 mm 1 mps 765 mmHg 69%
    08:00 +12°C° 0 mm 1 mps 765 mmHg 63%
    09:00 +14°C° 0 mm 1 mps 765 mmHg 56%
    10:00 +16°C° 0 mm 1 mps 764 mmHg 49%
    11:00 +18°C° 0 mm 0 mps 764 mmHg 42%
    12:00 +19°C° 0 mm 0 mps 764 mmHg 39%
    13:00 +22°C° 0 mm 1 mps 763 mmHg 36%
    14:00 +23°C° 0 mm 1 mps 763 mmHg 33%
    15:00 +22°C° 0 mm 1 mps 762 mmHg 33%
    16:00 +22°C° 0 mm 1 mps 762 mmHg 34%
    17:00 +22°C° 0 mm 1 mps 761 mmHg 34%
    18:00 +19°C° 0 mm 1 mps 762 mmHg 41%
    19:00 +16°C° 0 mm 1 mps 762 mmHg 48%
    20:00 +14°C° 0 mm 2 mps 762 mmHg 56%
    21:00 +13°C° 0 mm 2 mps 762 mmHg 58%
    22:00 +13°C° 0 mm 2 mps 762 mmHg 60%
    23:00 +12°C° 0 mm 2 mps 762 mmHg 63%

    30 March, Thursday

    Time Temperature Precipitation Wind Pressure Humidity
    00:00 +11°C° 0 mm 3 mps 762 mmHg 64%
    01:00 +11°C° 0 mm 3 mps 762 mmHg 66%
    02:00 +10°C° 0 mm 3 mps 762 mmHg 68%
    03:00 +11°C° 0 mm 3 mps 762 mmHg 69%
    04:00 +11°C° 0 mm 4 mps 762 mmHg 69%
    05:00 +11°C° 0 mm 4 mps 762 mmHg 70%
    06:00 +11°C° 0 mm 4 mps 762 mmHg 68%
    07:00 +12°C° 0 mm 5 mps 762 mmHg 67%
    08:00 +13°C° 0 mm 5 mps 762 mmHg 65%
    09:00 +14°C° 0 mm 6 mps 762 mmHg 60%
    10:00 +15°C° 0 mm 6 mps 762 mmHg 54%
    11:00 +17°C° 0 mm 6 mps 762 mmHg 49%
    12:00 +19°C° 0 mm 6 mps 762 mmHg 46%
    13:00 +19°C° 0 mm 6 mps 762 mmHg 42%
    14:00 +20°C° 0 mm 6 mps 761 mmHg 39%
    15:00 +20°C° 0 mm 5 mps 762 mmHg 41%
    16:00 +19°C° 0 mm 5 mps 762 mmHg 42%
    17:00 +19°C° 0 mm 5 mps 762 mmHg 44%
    18:00 +17°C° 0 mm 4 mps 762 mmHg 50%
    19:00 +15°C° 0 mm 4 mps 763 mmHg 55%
    20:00 +13°C° 0 mm 3 mps 764 mmHg 61%
    21:00 +12°C° 0 mm 3 mps 764 mmHg 66%
    22:00 +12°C° 0 mm 2 mps 764 mmHg 70%
    23:00 +10°C° 0 mm 2 mps 765 mmHg 75%

    31 March, Friday

    Time Temperature Precipitation Wind Pressure Humidity
    00:00 +10°C° 0 mm 2 mps 765 mmHg 77%
    01:00 +9°C° 0 mm 2 mps 765 mmHg 79%
    02:00 +10°C° 0 mm 1 mps 765 mmHg 82%
    03:00 +9°C° 0 mm 1 mps 765 mmHg 84%
    04:00 +9°C° 0 mm 1 mps 765 mmHg 85%
    05:00 +9°C° 0 mm 1 mps 766 mmHg 87%
    06:00 +9°C° 0 mm 2 mps 766 mmHg 83%
    07:00 +9°C° 0 mm 2 mps 766 mmHg 79%
    08:00 +10°C° 0 mm 2 mps 767 mmHg 74%
    09:00 +11°C° 0 mm 3 mps 767 mmHg 71%
    10:00 +12°C° 0 mm 3 mps 767 mmHg 68%
    11:00 +12°C° 0 mm 3 mps 767 mmHg 65%
    12:00 +13°C° 0 mm 4 mps 766 mmHg 62%
    13:00 +14°C° 0 mm 4 mps 766 mmHg 59%
    14:00 +14°C° 0 mm 4 mps 766 mmHg 56%
    15:00 +14°C° 0 mm 4 mps 765 mmHg 56%
    16:00 +14°C° 0 mm 4 mps 765 mmHg 57%
    17:00 +14°C° 0 mm 4 mps 765 mmHg 57%
    18:00 +13°C° 0 mm 4 mps 765 mmHg 63%
    19:00 +11°C° 0 mm 3 mps 765 mmHg 70%
    20:00 +9°C° 0 mm 3 mps 765 mmHg 76%
    21:00 +9°C° 0 mm 3 mps 765 mmHg 78%
    22:00 +8°C° 0 mm 3 mps 765 mmHg 80%
    23:00 +8°C° 0 mm 2 mps 765 mmHg 81%
    Show more